Regional Weather Roundup
Issued by NWS

Home | Current Version | Previous Version | Graphics & Text | Print | Product List | Glossary On
Versions: 1 2 3 4 5 6 7 8 9 10 11 12 13 14 15 16 17 18 19 20 21 22 23 24 25 26 27 28 29 30 31 32 33 34 35 36 37 38 39 40 41 42 43 44 45 46 47 48 49 50
000
ASUS45 KBOU 281707
RWRCO

WEATHER ROUNDUP FOR COLORADO
NATIONAL WEATHER SERVICE DENVER/BOULDER CO
1100 AM MDT FRI AUG 28 2015

NOTE: "FAIR" INDICATES FEW OR NO CLOUDS BELOW 12000 FEET WITH NO
SIGNIFICANT WEATHER AND/OR OBSTRUCTIONS TO VISIBILITY.

COZ001>005-013-030-031-281800-
...NORTHWEST COLORADO...

CITY           SKY/WX    TMP DP  RH WIND       PRES   REMARKS
CRAIG          SUNNY     69  50  50 CALM      30.39S
HAYDEN         NOT AVBL
MEEKER         SUNNY     67  49  52 CALM      30.40S
MOUNT WERNER   NOT AVBL
STEAMBOAT SPGS SUNNY     61  49  63 CALM      30.42S
WALDEN         SUNNY     59  45  58 S3        30.47R
$$

COZ006>008-011-281800-
...WEST CENTRAL VALLEYS...

CITY           SKY/WX    TMP DP  RH WIND       PRES   REMARKS
GRAND JUNCTION SUNNY     71  52  50 SE12      30.30S
MONTROSE       SUNNY     70  51  51 CALM      30.37S
EAGLE          SUNNY     64  48  55 CALM      30.44S
RIFLE          SUNNY     66  52  60 VRB3      30.36F
DELTA          SUNNY     69  52  53 CALM      30.34S
NUCLA          SUNNY     73  46  38 W3        30.37S
$$

COZ017>023-064>068-281800-
...SOUTHWEST COLORADO...

CITY           SKY/WX    TMP DP  RH WIND       PRES   REMARKS
DURANGO        SUNNY     72  43  35 CALM      30.33S
CORTEZ         SUNNY     76  47  35 CALM      30.29S
PAGOSA SPRINGS SUNNY     71  37  28 SW3       30.40S
TELLURIDE      SUNNY     65  35  32 NE5       30.54R
WOLF CREEK PAS SUNNY     52  34  50 NE16G25   30.71S
$$

COZ009-010-012-014-032>034-037-058>063-281800-
...CENTRAL COLORADO...

CITY           SKY/WX    TMP DP  RH WIND       PRES   REMARKS
ASPEN          SUNNY     65  47  52 N6        30.47S
BUENA VISTA    SUNNY     71  34  25 NW15G26   30.43S
COPPER MTN     CLOUDY    52  39  62 W14       30.72S
BERTHOUD PASS  PTSUNNY   41  30  65 NW23G29   30.74R
COTTONWOOD PAS SUNNY     70  32  24 CALM      30.56S
GUNNISON       SUNNY     61  45  55 W3        30.49S
KREMMLING      SUNNY     55  45  67 CALM      30.49S
LEADVILLE      SUNNY     57  38  48 N17G24    30.57R
MONARCH PASS   PTSUNNY   48  39  71 S5        30.80R
SALIDA         SUNNY     71  39  30 NW7       30.48F
SUNLIGHT       SUNNY     54  39  58 NW5       30.69R
WILKERSON PASS MOSUNNY   55  34  44 N6        30.68R
$$

COZ069>075-281800-
...SAN LUIS VALLEY/SANGRE DE CRISTO MOUNTAINS...

CITY           SKY/WX    TMP DP  RH WIND       PRES   REMARKS
ALAMOSA        SUNNY     70  42  36 NW10      30.40R
LA VETA PASS   PTSUNNY   59  39  47 N3        30.58R
SAGUACHE       SUNNY     72  39  30 NW14G23   30.42R
$$

COZ035-036-038>040-281800-
...NORTHERN COLORADO FRONT RANGE...

CITY           SKY/WX    TMP DP  RH WIND       PRES   REMARKS
DENVER INTL AP MOSUNNY   78  44  29 NW10      30.27R
DMNS CITY PARK   N/A     80  42  26 N7G14     30.26S
AURORA         PTSUNNY   78  46  32 N12       30.29R
FRONT RANGE AP MOSUNNY   77  43  29 NW13G20   30.28R
ERIE MUNI ARPT PTSUNNY   81  41  24 N7        30.24S
BOULDER MUN AP MOSUNNY   81  43  26 SE5       30.25R
CENTENNIAL     MOSUNNY   75  47  36 N8        30.30R
BROOMFIELD     MOSUNNY   77  43  29 NE8       30.28R
FORT COLLINS   MOSUNNY   79  52  38 NE10      30.24S
LONGMONT       MOSUNNY   81  47  30 SE3       30.25S
$$

COZ041-046-047-076>085-087-088-281800-
...PIKES PEAK/PALMER DIVIDE AND SOUTHERN FOOTHILLS...

CITY           SKY/WX    TMP DP  RH WIND       PRES   REMARKS
COLO. SPRINGS  MOSUNNY   77  42  28 N21G26    30.31R
A. F. ACADEMY  SUNNY     73  43  33 N20       30.33R
ELLICOTT       SUNNY    N/A N/A N/A N16G23    30.30R
FALCON         SUNNY     72  45  38 MISG      30.37R
FORT CARSON    SUNNY     76  49  39 VRB3      30.29R
LIMON          SUNNY     76  49  38 NW16G22   30.25S
MONUMENT HILL  SUNNY     68  45  42 N14G20    30.39R
TRINIDAD       SUNNY     77  50  38 NW6       30.28R
$$

COZ042>045-048>051-090-091-281800-
...NORTHEAST COLORADO...

CITY           SKY/WX    TMP DP  RH WIND       PRES   REMARKS
GREELEY ARPT   PTSUNNY   79  52  38 N8        30.23S
AKRON          SUNNY     79  50  36 W10G20    30.18R
BURLINGTON     SUNNY     83  49  30 NW16G22   30.14S
WRAY           SUNNY     84  49  29 NW14G22   30.10R
STERLING       SUNNY     82  50  32 N14G20    30.13R
HOLYOKE        SUNNY     84  50  30 N12G18    30.10R
FORT MORGAN    SUNNY     76  54  46 W14       30.21R
$$

COZ086-089-092>099-281800-
...SOUTHEAST COLORADO...

CITY           SKY/WX    TMP DP  RH WIND       PRES   REMARKS
PUEBLO         SUNNY     82  53  36 NE6       30.21S
LA JUNTA       MOSUNNY   83  56  39 N7        30.18R
LAMAR          MOSUNNY   82  61  48 N7        30.13R
SPRINGFIELD      N/A     83  55  38 N8G16     30.16R
$$




USA.gov is the U.S. government's official web portal to all federal, state and local government web resources and services.